[Date Prev][Date Next][Thread Prev][Thread Next] - [Date Index][Thread Index][Author Index]

2 Line ISS Keps 12-15



ISS
1 25544U 98067A   05349.94881944  .00013541  00000-0  10081-3 0  9535
2 25544 051.6458 049.3426 0010450 045.0338 303.4528 15.73096643404289
----
Via the sarex mailing list at AMSAT.ORG courtesy of AMSAT-NA.
To unsubscribe, send "unsubscribe sarex" to Majordomo@amsat.org



AMSAT Top AMSAT Home